Regional Weather Roundup
Issued by NWS Goodland, KS

Home | Current Version | Previous Version | Graphics & Text | Print | Product List | Glossary On
Versions: 1 2 3 4 5 6 7 8 9 10 11 12 13 14 15 16 17 18 19 20 21 22 23 24 25 26 27 28 29 30 31 32 33 34 35 36 37 38 39 40 41 42 43 44 45 46 47 48 49 50
000
ASUS43 KGLD 300708
RWRGLD

GOODLAND FORECAST AREA HOURLY WEATHER ROUNDUP
NATIONAL WEATHER SERVICE GOODLAND KS
100 AM MDT SAT MAY 30 2015

...OFFICIAL OBSERVATIONS...

CITY           SKY/WX    TMP DP  RH WIND       PRES   REMARKS
GOODLAND KS    CLOUDY    49  46  90 N14       30.30R
HILL CITY KS   CLOUDY    53  47  79 N14G25    30.23S
IMPERIAL NEB   CLOUDY    49  43  80 N10       30.31R
MCCOOK NEB     CLOUDY    50  44  80 N16       30.28R
AKRON CO       CLOUDY    47  45  93 CALM      30.33R
BURLINGTON CO  CLOUDY    49  45  86 N12       30.31S
LIMON CO       CLOUDY    46  42  86 N10       30.35S
$$

...UNOFFICIAL OBSERVATIONS...

CITY           SKY/WX    TMP DP  RH WIND       PRES   REMARKS
COLBY KS       CLOUDY    52  50  93 NW15G21   30.29S
GOVE KS          N/A     53  32  45 MISG        N/A
NORTON KS      CLOUDY    50  43  76 NW18      30.24S
SHARON SPRINGS   N/A     51  47  88 MISG        N/A
KIT CARSON CO    N/A     50  46  85 MISG        N/A
$$


USA.gov is the U.S. government's official web portal to all federal, state and local government web resources and services.